Notices

What's New in latest Release from April 7th, 2021:

- Updated Glossary, including Speed of Maximum Gust, and Total Hourly Precipitation

- Updated national and regional climate services offices contacts and prices information

- Addition of station inventory lists for 1981-2010, 1971-2000, and 1961-1990 Normals.

If you haven't already, please take our survey and provide feedback about our website: https://eccc.sondage-survey.ca/f/LanguageSelection.aspx?s=442ca660-fcf1-47c0-95a9-59707d6fd709

Hourly Data Report for January 13, 2005

SHERBROOKE A
QUEBEC

45°26'00.000" N
71°41'00.000" W
241.40 m
7028124
71610
YSC

Download Data

Hourly Data (January 2005)
Hourly Data Report for January 13, 2005
TIME
LST
Temp Definition
°C
Dew Point Definition
°C
Rel Hum Definition
%
Precip. Amount Definition
mm

Wind Dir Definition
10's deg

Wind Spd Definition
km/h
Visibility Definition
km
Stn Press Definition
kPa
Hmdx Definition


Wind Chill Definition


Weather Definition


00:00 -1.2 -4.5 78   14 15 15.0 99.10   -6 Snow
01:00 -0.7 -4.1 78   13 9 15.0 99.02   -4  
02:00 0.4 -3.1 77   13 11 15.0 98.94      
03:00 0.6 -2.1 82   15 11 15.0 98.91     Rain
04:00 1.4 -1.5 81   14 7 15.0 98.90      
05:00 2.5 -0.3 82   14 11 15.0 98.87      
06:00 2.8 0.2 83   12 7 15.0 98.81      
07:00 1.8 -0.4 85     0 15.0 98.75      
08:00 2.4 0.5 87   10 6 24.1 98.67     Mostly Cloudy
09:00 3.2 0.7 84     0 24.1 98.70     Mostly Cloudy
10:00 6.6 2.9 77   20 13 24.1 98.70     Mostly Cloudy
11:00 6.9 3.2 77   18 17 24.1 98.60     Mostly Cloudy
12:00 8.2 4.2 76   20 15 24.1 98.49     Mostly Cloudy
13:00 8.6 4.3 74   18 11 24.1 98.41     Mostly Cloudy
14:00 9.1 4.9 75   20 15 24.1 98.34     Mostly Cloudy
15:00 8.9 5.0 77   21 9 24.1 98.30     Mostly Cloudy
16:00 7.9 4.6 80   19 6 24.1 98.20     Mostly Cloudy
17:00 7.9 5.0 82   19 19 24.1 98.15     Mostly Cloudy
18:00 7.6 5.4 86   18 11 15.0 98.04      
19:00 9.4 6.5 82   21 13 15.0 97.98      
20:00 10.0 7.1 82   19 11 15.0 97.92      
21:00 11.2 8.1 81   19 7 15.0 97.81      
22:00 11.7 8.5 81   19 17 15.0 97.74      
23:00 12.4 9.0 80   20 19 15.0 97.67      

Notes on Data Quality.

Legend

  • E = Estimated
  • M = Missing
  • NA = Not Available*
  • [empty] = Indicates an unobserved value
Date modified: